UFO 8 (USA 138)

Last updated on Jan. 22, 2021, 6:26 a.m. UTC

1 25258U 98016A   21021.76720356 -.00000018  00000-0  00000-0 0  9998
2 25258   8.8893  31.9234 0003839 277.0789 260.1286  1.00274757 84072
UTC
Height (km)
Latitude
Longitude
Inclination
Orbital Period
UTC large
Height (km)
Speed (km/s)
/
Latitude / Longitude
Inclination (degrees)
Orbital Period (minutes)
Azimuth
Elevation
Range (km)
Doppler Factor
iOS Compass Heading
iOS Angle

Next 30 passes for location: Hong Kong

Rise time Rise Azimuth (degrees) Set time Set Azimuth (degrees) Duration Max altitude (degrees)

No matching passes for this satellites